Location: Leuk
(46.3174°N, 7.6341°E)
Time: 21:27:10
(UTC+00:00)

Cosmos 2322 - Pass Details

Date: 09 March 2021
Orbit: 842 x 853 km, 71.0° (Epoch: 22 April)

Event Time Altitude Azimuth Distance (km) Brightness Sun altitude
Rises 03:29:17 0° 333° (NNW) 3,423 6.8 -25.3°
Reaches altitude 10° 03:31:44 10° 334° (NNW) 2,482 6.1 -24.9°
Maximum altitude 03:37:28 85° 64° (ENE) 856 3.7 -24.0°
Drops below altitude 10° 03:43:07 10° 153° (SSE) 2,458 6.2 -23.1°
Sets 03:45:33 0° 154° (SSE) 3,388 6.9 -22.7°
